Flag for Canada Weather past 2 weeks in Rankin Inlet, Nunavut, Canada

Now
45 °F

Passing clouds.


Feels Like: 38 °F
Forecast: 42 / 46 °F
Wind: 15 mph from Southeast

Location: Rankin Inlet

Current Time: Aug 31, 2015 at 4:21:06 AM

Latest Report: Aug 31, 2015 at 3:00 AM


Visibility: 15 mi

Pressure: 29.96 "Hg

Humidity: 76%

Dew point: 37 °F

Location of Rankin InletLocation

Historic Weather in Rankin Inlet — Graph

°F

Rankin Inlet temperature yesterday

Maximum temperature yesterday: 48 °F (at 12:00 PM)
Minimum temperature yesterday: 39 °F (at 6:00 AM)
Average temperature yesterday: 45 °F

Past Weeks' High & Low Weather Summary

 TemperatureHumidityPressure
High66 °F (Aug 16, 4:00 PM)100% (Aug 20, 6:00 AM)30.14 "Hg (Aug 20, 6:00 AM)
Low39 °F (Aug 19, 2:00 AM)41% (Aug 28, 4:00 PM)29.68 "Hg (Aug 17, 12:00 PM)
Average47 °F80%29.92 "Hg
* Reported Aug 16 3:00 AM — Aug 31 3:00 AM, Rankin Inlet, Weather by CustomWeather, © 2015

Note: Actual official high and low records may vary slightly from our data, if they occured in-between our weather recording intervals... More about our weather records

Advertising

Rankin Inlet weather history for previous 24 hours

 ConditionsComfort  
Time TempWeatherWind HumidityBarometerVisibility
3:00 AM
Mon, Aug 31
45 °FPassing clouds.15 mph76%29.96 "Hg15 mi
2:00 AM45 °FPassing clouds.18 mph76%29.98 "Hg15 mi
1:00 AM45 °FPassing clouds.15 mph81%29.99 "Hg15 mi
12:00 AM45 °FPassing clouds.18 mph81%30.00 "Hg15 mi
11:00 PM
Sun, Aug 30
45 °FPassing clouds.17 mph76%30.01 "Hg15 mi
10:00 PM45 °FPassing clouds.15 mph76%30.02 "Hg15 mi
9:00 PM45 °FPartly sunny.16 mph71%30.02 "Hg15 mi
8:00 PM46 °FPartly sunny.15 mph71%30.03 "Hg15 mi
7:00 PM46 °FPartly sunny.16 mph71%30.04 "Hg15 mi
6:00 PM46 °FPartly sunny.15 mph71%30.03 "Hg15 mi
5:00 PM46 °FPartly sunny.13 mph71%30.03 "Hg15 mi
4:00 PM48 °FBroken clouds.14 mph66%30.03 "Hg15 mi
3:00 PM48 °FScattered clouds.12 mph71%30.03 "Hg15 mi
2:00 PM48 °FScattered clouds.9 mph71%30.04 "Hg15 mi
1:00 PM48 °FPassing clouds.10 mph71%30.05 "Hg15 mi
12:00 PM48 °FPassing clouds.12 mph66%30.04 "Hg15 mi
11:00 AM46 °FPassing clouds.10 mph82%30.03 "Hg15 mi
10:00 AM46 °FPassing clouds.9 mph76%30.03 "Hg15 mi
9:00 AM45 °FPassing clouds.8 mph87%30.02 "Hg15 mi
8:00 AM45 °FPassing clouds.7 mph87%30.01 "Hg15 mi
7:00 AM41 °FPassing clouds.5 mph93%30.00 "Hg15 mi
6:00 AM39 °FPassing clouds.5 mph100%29.99 "Hg15 mi
5:00 AM41 °FPassing clouds.3 mph93%29.98 "Hg15 mi
4:00 AM41 °FPassing clouds.5 mph93%29.98 "Hg15 mi
Weather by CustomWeather, © 2015

See weather overviewHow to use our weather pages